EW9515 Weather Reports


Display with metric or nautical units.
time (UTC)temp
F
wind
direction
speed
MPH
gust
MPH
rain 1hr
in
rain 24hr
in
rain mn
in
humidity
%
barometer
mb
20260906100223 0 158 6.0 10.0 0.00 0.01 0.01
20260906095233 0 158 8.0 14.0 0.00 0.01 0.01
20260906094228 0 203 8.0 13.0 0.00 0.01 0.01
20260906093218 0 158 6.0 10.0 0.00 0.01 0.01
20260906092232 0 158 4.0 6.0 0.00 0.01 0.01
20260906091233 0 203 7.0 12.0 0.00 0.01 0.01
20260906090218 0 135 8.0 12.0 0.00 0.01 0.01
20260906085232 0 203 9.0 16.0 0.00 0.01 0.01
20260906084228 0 135 5.0 10.0 0.00 0.01 0.01
20260906083218 0 203 6.0 16.0 0.00 0.01 0.01
20260906082232 0 158 9.0 15.0 0.00 0.01 0.01
20260906081228 0 158 10.0 15.0 0.00 0.01 0.01
20260906080219 0 180 10.0 16.0 0.00 0.01 0.01
20260906075258 0 203 9.0 16.0 0.00 0.01 0.01
20260906074228 0 180 7.0 14.0 0.00 0.01 0.01
20260906073218 0 203 11.0 20.0 0.00 0.01 0.01
20260906072233 0 158 10.0 14.0 0.00 0.01 0.01
20260906071228 0 203 4.0 7.0 0.00 0.01 0.01
20260906070218 0 203 3.0 4.0 0.00 0.01 0.01
20260906065232 0 203 6.0 8.0 0.00 0.01 0.01
20260906064228 0 338 3.0 8.0 0.00 0.01 0.01
20260906063218 0 315 2.0 5.0 0.00 0.01 0.01
20260906062234 0 225 3.0 9.0 0.00 0.01 0.01
20260906061229 0 203 7.0 13.0 0.00 0.01 0.01
20260906060223 0 203 9.0 17.0 0.00 0.01 0.01
20260906055234 0 45 6.0 8.0 0.00 0.01 0.01
20260906054229 0 23 4.0 6.0 0.00 0.01 0.01
20260906053218 0 0 3.0 5.0 0.00 0.01 0.01
20260906052257 0 45 4.0 5.0 0.00 0.01 0.01
20260906051228 0 23 3.0 4.0 0.00 0.01 0.01
20260906050218 0 23 6.0 8.0 0.00 0.01 0.01
20260906045232 0 23 5.0 9.0 0.00 0.01 0.01
20260906044228 0 23 5.0 7.0 0.00 0.01 0.01
20260906043218 0 23 1.0 3.0 0.00 0.01 0.01
20260906042233 0 23 6.0 8.0 0.00 0.01 0.01
20260906041229 0 45 4.0 8.0 0.00 0.01 0.01
20260906040217 0 23 3.0 5.0 0.00 0.01 0.01
20260906035231 0 23 6.0 9.0 0.00 0.01 0.01
20260906034228 0 225 3.0 5.0 0.00 0.01 0.01
20260906033228 0 0 5.0 8.0 0.00 0.01 0.01
20260906032233 0 203 6.0 12.0 0.00 0.01 0.01
20260906031228 0 225 5.0 9.0 0.00 0.01 0.01
20260906030217 0 248 1.0 3.0 0.00 0.01 0.01
20260906025231 0 293 3.0 6.0 0.00 0.01 0.01
20260906024229 0 0 3.0 7.0 0.00 0.01 0.01
20260906023217 0 0 3.0 6.0 0.00 0.01 0.01
20260906022231 0 23 1.0 2.0 0.00 0.01 0.01
20260906021228 0 0 2.0 4.0 0.00 0.01 0.01
20260906020237 0 180 2.0 6.0 0.00 0.01 0.01
20260906015314 0 0 10.0 13.0 0.00 0.01 0.01
20260906015038 0 212 1.0 0.0 0.00 0.01 0.01
20260906014036 0 338 3.0 7.0 0.00 0.01 0.01
20260906013027 0 293 3.0 5.0 0.00 0.01 0.01
20260906012017 0 315 2.0 6.0 0.00 0.01 0.01
20260906011051 0 315 4.0 6.0 0.00 0.01 0.01
20260906010029 0 338 2.0 5.0 0.00 0.01 0.01
20260906005037 0 90 3.0 9.0 0.00 0.01 0.01
20260906004112 0 23 3.0 6.0 0.00 0.01 0.01
20260906003029 0 0 3.0 6.0 0.00 0.01 0.01
20260906002037 0 338 2.0 4.0 0.00 0.01 0.01
20260906001032 0 315 2.0 4.0 0.00 0.01 0.01
20260906000028 0 315 2.0 5.0 0.00 0.01 0.01
20260905235022 0 315 2.0 4.0 0.00 0.01 0.01
20260905234031 0 338 5.0 8.0 0.00 0.01 0.01
20260905233104 0 0.0 0.0 0.00 0.01 0.01
20260905232128 0 338 3.0 5.0 0.00 0.01 0.01
20260905231117 0 23 3.0 5.0 0.00 0.01 0.01
20260905230132 0 338 3.0 6.0 0.00 0.01 0.01
20260905225128 0 338 5.0 7.0 0.00 0.01 0.01
20260905224117 0 0 5.0 8.0 0.00 0.01 0.01
20260905223126 0 23 4.0 7.0 0.00 0.01 0.01
20260905222128 0 0 3.0 14.0 0.00 0.01 0.01
20260905221122 0 0 2.0 3.0 0.00 0.01 0.01
20260905220128 0 338 2.0 4.0 0.00 0.01 0.01
20260905215132 0 338 6.0 9.0 0.00 0.01 0.01
20260905214117 0 23 2.0 3.0 0.00 0.01 0.01
20260905213133 0 23 2.0 3.0 0.00 0.01 0.01
20260905212147 0 338 2.0 5.0 0.00 0.01 0.01
20260905211116 0 23 2.0 4.0 0.00 0.01 0.01
20260905210131 0 23 2.0 3.0 0.00 0.01 0.01
20260905205127 0 23 2.0 4.0 0.00 0.01 0.01
20260905204117 0 0.0 1.0 0.00 0.01 0.01
20260905203125 0 0.0 1.0 0.00 0.01 0.01
20260905202127 0 23 1.0 2.0 0.00 0.01 0.01
20260905201137 0 23 1.0 2.0 0.00 0.01 0.01
20260905200129 0 23 1.0 2.0 0.00 0.01 0.01
20260905195128 0 23 2.0 3.0 0.00 0.01 0.01
20260905194124 0 338 1.0 2.0 0.00 0.01 0.01
20260905193128 0 0 1.0 2.0 0.00 0.01 0.01
20260905192129 0 338 1.0 2.0 0.00 0.01 0.01
20260905191119 0 338 1.0 1.0 0.00 0.01 0.01
20260905190130 0 0.0 1.0 0.00 0.01 0.01
20260905185128 0 0.0 1.0 0.00 0.01 0.01
20260905184118 0 0.0 1.0 0.00 0.01 0.01
20260905183128 0 338 1.0 2.0 0.00 0.01 0.01
20260905182128 0 0.0 1.0 0.00 0.01 0.01
20260905181139 0 338 1.0 3.0 0.00 0.01 0.01
20260905180132 0 338 2.0 3.0 0.01 0.01 0.01
20260905175128 0 0.0 1.0 0.01 0.01 0.01
20260905174123 0 0.0 1.0 0.01 0.01 0.01
20260905173157 0 0.0 1.0 0.01 0.01 0.01
20260905172149 0 338 1.0 2.0 0.01 0.01 0.01
20260905171138 0 338 1.0 2.0 0.01 0.01 0.01
20260905170149 0 338 1.0 3.0 0.00 0.00 0.00
20260905165128 0 338 2.0 2.0 0.00 0.00 0.00
20260905164118 0 338 1.0 4.0 0.00 0.00 0.00
20260905163129 0 338 2.0 3.0 0.00 0.00 0.00
20260905162128 0 315 1.0 1.0 0.00 0.00 0.00
20260905161118 0 0.0 1.0 0.00 0.00 0.00
20260905160130 0 0.0 1.0 0.00 0.00 0.00
20260905155129 0 0.0 1.0 0.00 0.00 0.00
20260905154124 0 315 1.0 2.0 0.00 0.00 0.00
20260905153208 0 0.0 0.0 0.00 0.00 0.00
20260905152128 0 0.0 1.0 0.00 0.00 0.00
20260905151119 0 0.0 1.0 0.00 0.00 0.00
20260905150132 0 0.0 0.0 0.00 0.00 0.00
20260905145153 0 0.0 1.0 0.00 0.00 0.00
20260905144118 0 0.0 1.0 0.00 0.00 0.00
20260905143128 0 0.0 1.0 0.00 0.00 0.00
20260905142128 0 0.0 0.0 0.00 0.00 0.00
20260905141138 0 0.0 1.0 0.00 0.00 0.00
20260905140127 0 315 1.0 2.0 0.00 0.00 0.00
20260905135127 0 0.0 1.0 0.00 0.00 0.00
20260905134117 0 0.0 0.0 0.00 0.00 0.00
20260905133126 0 0.0 0.0 0.00 0.00 0.00
20260905132127 0 0.0 0.0 0.00 0.00 0.00
20260905131124 0 0.0 1.0 0.00 0.00 0.00
20260905130134 0 0.0 0.0 0.00 0.00 0.00
20260905125147 0 0.0 0.0 0.00 0.00 0.00
20260905124157 0 0.0 0.0 0.00 0.00 0.00
20260905123126 0 0.0 0.0 0.00 0.00 0.00
20260905122127 0 0.0 0.0 0.00 0.00 0.00
20260905121117 0 0.0 0.0 0.00 0.00 0.00
20260905120144 0 0.0 1.0 0.00 0.00 0.00
20260905115128 0 0.0 1.0 0.00 0.00 0.00
20260905114119 0 0.0 1.0 0.00 0.00 0.00
20260905113153 0 0.0 1.0 0.00 0.00 0.00
20260905112128 0 0.0 0.0 0.00 0.00 0.00
20260905111138 0 0.0 0.0 0.00 0.00 0.00
20260905110149 0 0.0 0.0 0.00 0.00 0.00
20260905105129 0 0.0 0.0 0.00 0.00 0.00
20260905104118 0 0.0 0.0 0.00 0.00 0.00
20260905103127 0 0.0 0.0 0.00 0.00 0.00
20260905102129 0 315 1.0 2.0 0.00 0.00 0.00